Regional Weather Roundup
Issued by NWS Charleston, SC

Current Version | Previous Version | Graphics & Text | Print | Product List | Glossary On
Versions: 1 2 3 4 5 6 7 8 9 10 11 12 13 14 15 16 17 18 19 20 21 22 23 24 25 26 27 28 29 30 31 32 33 34 35 36 37 38 39 40 41 42 43 44 45 46 47 48 49 50
000 ASUS42 KCHS 260510 RWRCHS REGIONAL WEATHER ROUNDUP NATIONAL WEATHER SERVICE CHARLESTON SC 100 AM EDT SAT JUL 26 2014 NOTE: "FAIR" INDICATES FEW OR NO CLOUDS BELOW 12,000 FEET WITH NO SIGNIFICANT WEATHER AND/OR OBSTRUCTIONS TO VISIBILITY. NOT ALL STATIONS ARE QUALITY CONTROLLED BY THE NATIONAL WEATHER SERVICE. USE DATA WITH CAUTION...ESPECIALLY DEWPOINT OBSERVATIONS. SCZ027-030-031-034>040-042>050-260600- ...SOUTH CAROLINA... CITY SKY/WX TMP DP RH WIND PRES REMARKS N CHARLESTON MOCLDY 74 71 91 SW5 30.02S WATERFRONT PRK N/A 77 N/A N/A S8 N/A FORT JOHNSON NOT AVBL MOUNT PLEASANT FAIR 73 73 100 E3 30.02S FOG JOHNS ISLAND PTCLDY 73 70 88 CALM 30.03R PINOPOLIS N/A 77 72 83 CALM 29.91F MONCKS CORNER N/A 73 73 100 CALM 30.00F SUMMERVILLE FAIR 72 72 100 CALM 30.01S BEAUFORT MCAS TSTM 73 71 93 SW3 30.03R BEAUFORT ARPT LGT RAIN 72 72 100 W8 30.03R HILTON HEAD IS CLOUDY 73 73 100 S3 30.04S GEORGETOWN NOT AVBL WALTERBORO NOT AVBL ORANGEBURG PTCLDY 74 71 91 W3 30.01F BARNWELL FAIR 73 73 100 SW3 30.02F AIKEN FAIR 72 72 100 CALM 30.06F MANNING N/A 73 N/A N/A CALM 30.00F VSB 1 KINGSTREE NOT AVBL COLUMBIA CLEAR 76 70 82 W3 30.00F SUMTER CLEAR 74 72 95 E1 29.99F FLORENCE PTCLDY 73 71 93 CALM 30.01F MYRTLE BEACH PTCLDY 73 72 94 CALM 30.02S N MYRTLE BEACH CLEAR 75 72 90 CALM 30.01F $$ GAZ063-065-086>088-099>101-113>116-118-119-134-136>141-150-260600- ...GEORGIA... CITY SKY/WX TMP DP RH WIND PRES REMARKS SAVANNAH ARPT CLOUDY 77 73 87 SW3 30.04R HUNTER AAF CLOUDY 75 73 92 S7 30.02F FORT STEWART MOCLDY 78 73 84 SW2 30.03S STATESBORO NOT AVBL SYLVANIA CLOUDY 75 75 100 W5 30.05R CLAXTON FAIR 79 79 100 CALM 30.04S THOMSON MOCLDY 77 77 100 S5 30.08R AUGUSTA-BUSH PTCLDY 72 71 97 CALM 30.02S FOG AUGUSTA-DANIEL CLOUDY 75 72 90 SE5 30.03F SWAINSBORO FAIR 79 79 100 CALM 30.04F VIDALIA N/A 81 73 78 CALM 30.04S ALMA PTCLDY 77 73 87 CALM 30.03F WAYCROSS CLEAR 80 77 89 SW3 30.04F JESUP NOT AVBL BRUNSWICK PTCLDY 81 72 74 S5 30.05S SAINT SIMONS PTCLDY 79 74 84 SW7 30.04S $$ SCZ027-028-034-036>038-045-046-048>050-GAZ119-141-260600- ...LAKE AND SUPPLEMENTAL COASTAL OBSERVATIONS... STATION/POSITION TIME TEMP WIND PRES WAVE SWELL AIR SEA DIR/SP/G HT/PER HT/PER/DIR (UTC) (F) (DEG/KT/KT) (MB) (FT/S) (FT/S/D) UPR LAKE MARION NOT AVBL WINYAH BAY 0400 75 100/ 1 1016.0F LAKE MURRAY 0400 78 180/ 7/ 8 1015.9R ACE BASIN NERRS 0400 72 CALM 1017.0S FORT PULASKI 0500 75 150/ 4/ 6 1017.1F SAPELO ISLAND 0400 81 210/ 8 1018.0R $$ ANZ835-935-AMZ111-154-330-350-352-354-374-450-454-472-260600- ...C-MAN AND BUOY OBSERVATIONS... STATION/POSITION TIME TEMP WIND PRES WAVE SWELL AIR SEA DIR/SP/G HT/PER HT/PER/DIR (UTC) (F) (DEG/KT/KT) (MB) (FT/S) (FT/S/D) FOLLY BEACH CMAN 0400 76 270/ 6/ 9 1017.3F BUOY 41004 0500 83 83 220/ 12/ 14 1016.0R 3/ 5 2/ 8 BUOY 41008 0500 83 85 230/ 16/ 17 1016.9F 3/ 5 5E ST. MARYS GA 0500 84 N/A 2/ 4 FRYING PAN BUOY NOT AVBL BUOY 41025 0500 VRB 8/ 10 1017.1F 3/ 6 2/150/ 6 CAPE LOOKOUT NC 0400 79 80/ 9/ 10 1017.1S BUOY 41002 0407 82 82 260/ 10/ 12 1019.2R 4/ 7 3/240/ 7 BUOY 41010 0500 83 84 180/ 12/ 14 1018.7R 2/ 7 2/130/ 7 BUOY 41012 NOT AVBL ST AUGUSTINE FL 0500 76 210/ 7/ 8 1019.2R CAPERS NEARSHORE 0400 78 330/ 6/ 8 N/A FRIPP NEARSHORE NOT AVBL $$

USA.gov is the U.S. government's official web portal to all federal, state and local government web resources and services.